Wind_Speed
7 8 8 10 11 13 14 15 15 16 16 16 16 17 17 17 18 18 17 18 17 17 18 17 17 16 16 15 13 13 12 12 11 11 10 9 8 8 7 6 5 5 5
7 8 9 11 12 13 14 15 15 15 16 16 17 17 18 18 18 18 18 18 19 19 19 19 19 18 17 16 15 14 14 13 12 11 11 10 9 8 7 6 5 5 4
8 9 10 11 12 13 14 14 15 16 16 16 16 17 17 17 18 18 18 19 19 20 20 20 20 19 18 18 17 16 15 14 13 12 11 11 10 9 8 6 6 5 4
8 9 10 11 11 12 12 14 14 15 15 15 15 15 16 16 17 17 18 18 19 19 20 21 21 21 21 19 18 17 16 15 14 13 12 11 10 9 8 7 6 5 4
9 9 10 10 11 12 12 13 13 14 14 13 14 14 15 15 16 16 17 18 18 19 20 21 21 22 21 21 20 18 17 16 15 14 13 12 11 10 9 8 6 5 4
8 9 10 10 11 11 12 12 12 12 12 12 13 13 14 15 15 16 17 17 18 19 20 21 21 22 21 21 21 20 19 17 16 14 13 12 11 10 9 9 7 6 5
8 9 10 10 10 11 11 11 11 11 11 12 12 13 14 14 15 16 17 17 18 19 20 21 21 21 22 22 21 21 20 18 17 16 14 13 12 11 10 9 8 8 7
9 9 9 9 9 10 10 10 11 11 12 12 13 13 14 15 15 16 17 17 18 19 20 21 21 22 22 22 22 21 21 20 18 17 15 13 12 11 10 10 9 9 8
9 9 9 8 8 9 9 10 10 11 12 13 14 14 15 16 16 16 16 17 17 18 19 20 21 22 22 23 23 22 21 21 20 18 16 14 13 12 11 10 10 10 9
9 9 8 7 7 8 9 10 10 11 12 13 14 15 16 17 17 16 17 17 17 18 18 19 20 21 22 23 23 23 21 21 20 19 18 16 14 13 12 11 11 11 11
9 8 8 8 8 8 9 10 11 12 13 14 15 16 17 17 17 17 17 17 18 18 18 18 19 21 22 22 23 23 22 22 21 20 19 18 17 15 14 13 12 12 12
8 7 8 7 8 8 9 11 12 13 14 15 16 17 17 17 17 17 17 18 18 18 18 18 19 20 21 22 22 22 22 23 22 21 21 20 18 17 16 15 14 13 13
7 7 7 7 8 9 10 11 13 14 15 16 17 17 17 17 17 17 18 18 18 18 18 18 19 19 20 21 22 22 22 23 23 23 22 21 20 18 17 16 15 14 14
7 6 7 7 8 9 10 11 13 14 15 16 17 17 17 17 17 18 18 18 18 18 18 18 18 19 19 20 21 22 22 23 23 24 23 22 21 19 19 17 16 15 15
7 7 7 8 8 9 10 12 13 14 16 17 17 17 17 18 18 18 18 18 18 18 18 17 17 18 19 19 21 22 23 23 24 24 24 23 22 20 19 18 18 17 16
7 7 7 8 8 9 10 12 13 15 16 17 17 17 17 18 18 18 18 18 18 17 17 16 16 16 18 19 20 21 22 23 23 25 25 24 23 22 20 19 18 19 18
7 7 7 7 8 9 10 12 13 15 16 17 16 17 17 18 18 18 18 18 18 17 16 15 15 15 16 18 19 20 22 23 24 24 25 25 24 23 22 20 20 19 18
8 7 7 7 7 8 10 12 13 15 16 17 16 17 18 18 18 18 18 18 17 17 15 14 14 14 14 16 18 19 21 23 24 25 25 26 25 23 22 22 21 21 19
8 8 7 7 7 8 10 12 14 15 16 16 17 17 18 18 18 18 18 18 17 16 15 13 12 12 12 14 16 18 20 23 23 24 25 24 25 24 23 23 22 21 20
9 8 7 7 7 8 10 12 14 15 16 16 17 17 18 18 18 18 18 17 17 15 14 12 10 10 10 11 14 16 19 21 23 24 25 25 24 24 23 23 22 21 20
9 8 7 7 7 8 10 12 13 14 16 16 17 18 18 18 18 18 18 17 16 15 13 10 8 8 8 9 12 14 17 20 22 23 25 24 24 25 24 23 23 22 21
8 8 7 6 7 8 9 11 13 14 15 16 17 18 18 18 18 18 17 16 15 14 12 9 7 6 7 8 10 13 16 18 20 23 24 24 24 25 24 24 23 22 21
8 8 7 6 7 8 9 11 12 14 15 16 17 18 18 18 17 18 17 15 14 13 11 9 7 4 4 6 7 10 13 17 18 21 23 24 24 23 24 24 25 23 22
8 8 7 6 7 8 9 10 12 13 15 16 17 18 18 18 17 17 17 15 14 12 11 9 6 4 2 4 6 8 11 15 17 19 21 23 24 23 23 23 24 23 23
8 8 7 7 7 8 9 9 11 12 14 16 17 18 18 18 17 16 16 15 13 12 10 8 6 3 2 2 4 7 10 13 15 18 19 21 22 23 23 23 23 23 23
8 8 8 8 8 8 9 9 10 12 14 15 16 17 18 18 17 16 16 14 13 11 9 7 6 3 1 1 3 6 9 11 13 15 17 20 21 21 21 22 24 23 22
Wind_Direction
305 310 310 308 309 310 309 310 310 309 308 306 304 301 298 294 291 287 283 279 275 274 274 271 268 268 268 269 267 265 265 269 272 274 277 278 282 286 290 298 304 317 333
306 309 310 309 309 309 309 310 311 311 310 309 307 303 299 296 293 289 286 282 276 275 274 270 267 266 267 266 263 262 263 266 269 270 273 274 276 279 281 283 290 303 318
308 310 310 310 311 311 311 311 311 311 311 310 307 306 303 299 295 292 289 285 281 276 273 271 266 265 264 264 263 260 260 263 265 265 268 270 271 273 272 271 272 282 299
309 309 310 311 312 312 313 313 313 314 314 314 312 309 307 304 300 296 292 287 284 280 276 272 267 263 261 260 261 261 259 259 260 260 261 263 267 268 265 262 262 267 275
310 311 311 312 314 315 317 317 318 319 320 319 318 314 311 308 306 301 295 290 285 282 278 274 269 264 260 258 257 257 258 257 256 256 256 258 260 261 258 254 251 252 255
313 313 313 315 317 319 321 322 323 324 326 325 324 320 316 312 307 303 297 292 287 282 278 274 269 264 260 257 255 253 254 254 252 252 254 255 253 253 253 249 239 239 238
315 316 317 319 321 323 324 326 328 329 329 330 328 325 321 317 312 307 301 294 287 284 281 276 271 265 262 257 254 251 250 249 248 247 250 249 247 247 247 243 234 231 225
318 318 317 321 325 326 330 333 333 333 332 331 329 326 322 318 314 309 304 298 292 286 281 277 272 266 260 256 253 249 247 245 243 243 245 245 242 241 241 238 227 223 218
316 318 322 326 327 329 333 334 334 333 332 331 329 326 323 319 315 311 306 301 295 290 284 277 272 266 261 257 254 250 245 242 240 239 239 239 236 235 234 231 225 219 212
315 318 323 326 329 331 334 335 334 332 331 330 327 325 322 320 316 312 308 302 297 292 287 279 272 266 261 257 253 248 244 239 237 236 233 231 231 231 228 226 222 216 209
314 319 324 328 331 332 333 333 333 331 330 328 326 324 322 320 317 313 309 304 299 294 289 281 273 266 260 255 251 247 242 236 233 232 230 227 228 227 224 221 220 215 209
311 320 327 327 330 331 331 332 332 329 328 327 325 323 322 321 318 314 310 305 300 294 290 283 275 268 260 254 249 244 241 236 232 229 227 225 225 225 221 218 217 214 209
309 316 321 323 325 327 329 331 331 329 328 327 326 324 323 321 318 315 311 308 302 297 291 284 276 268 260 252 247 242 238 234 229 227 226 223 223 223 221 217 215 211 208
304 306 308 312 316 321 326 330 332 331 329 329 328 327 325 323 321 317 314 310 305 299 293 285 277 269 259 251 245 239 235 230 226 224 222 221 220 220 219 215 214 210 207
300 298 298 304 311 319 324 329 332 333 332 330 330 329 327 326 323 321 319 315 308 302 296 288 279 268 258 251 244 235 232 228 224 221 219 217 218 217 216 215 212 208 206
296 294 295 302 310 319 326 331 335 336 335 334 332 330 329 328 326 323 321 318 313 307 301 292 281 269 257 248 243 233 228 225 222 219 216 215 215 214 213 213 210 206 205
290 291 295 303 311 320 328 334 337 338 338 337 335 332 331 330 328 326 324 321 318 312 306 296 283 271 258 248 240 232 227 223 221 216 214 214 213 213 212 212 209 205 203
289 291 295 302 311 320 330 336 338 339 340 339 337 335 334 332 330 329 327 325 322 316 308 300 285 271 258 247 238 233 227 222 220 215 213 212 212 212 211 211 208 205 203
287 289 293 300 311 322 331 337 339 341 342 341 339 336 335 335 334 334 331 329 326 321 313 304 287 271 259 248 239 232 226 220 218 214 211 210 210 210 212 210 207 205 203
285 285 289 299 311 321 331 337 340 342 344 343 341 339 337 337 337 337 336 334 331 327 320 309 292 273 260 247 238 229 224 217 214 212 210 209 209 208 208 207 206 205 204
285 283 289 298 310 319 331 338 342 346 348 345 343 341 340 340 340 340 340 339 338 333 328 316 301 279 261 249 235 224 218 212 211 210 207 207 208 209 209 206 206 208 207
284 284 289 296 308 317 328 337 342 348 349 347 345 343 342 342 343 344 344 343 342 341 338 330 311 288 263 247 231 220 212 210 210 208 209 207 207 208 209 207 208 209 210
286 287 290 294 304 313 325 334 342 347 349 348 346 345 345 345 346 349 347 348 348 348 348 344 335 310 266 240 224 211 207 208 205 204 205 205 205 207 209 208 209 211 212
290 290 291 293 301 309 321 331 339 345 348 348 347 347 347 347 348 351 352 350 351 350 351 352 349 341 290 240 219 205 204 203 201 201 202 204 206 208 209 210 212 213 213
290 293 295 296 298 305 315 326 335 342 347 348 349 350 350 349 349 350 353 353 354 355 356 359 -0 355 331 251 213 205 200 200 198 199 201 204 205 207 211 213 213 211 213
290 291 294 295 296 302 311 320 329 337 343 346 348 350 351 351 351 351 355 357 358 359 360 2 4 3 344 234 197 197 196 198 199 198 200 204 206 208 211 215 212 211 213
Height
5875 5875 5874 5874 5873 5872 5871 5870 5869 5868 5867 5866 5865 5864 5863 5863 5862 5862 5862 5862 5862 5863 5863 5864 5864 5865 5866 5867 5868 5869 5870 5871 5872 5872 5873 5874 5874 5875 5875 5876 5876 5876 5876
5874 5874 5873 5872 5872 5871 5869 5868 5867 5866 5864 5863 5862 5861 5860 5860 5859 5859 5859 5859 5859 5859 5860 5860 5861 5862 5863 5864 5865 5866 5867 5869 5870 5871 5871 5872 5873 5874 5874 5875 5875 5875 5876
5873 5872 5872 5871 5870 5869 5868 5866 5865 5864 5862 5861 5860 5859 5858 5857 5856 5856 5855 5855 5855 5855 5856 5856 5857 5859 5860 5861 5862 5864 5865 5866 5867 5869 5869 5870 5871 5872 5873 5873 5874 5874 5875
5871 5871 5870 5869 5868 5867 5866 5865 5863 5862 5860 5859 5857 5856 5855 5854 5853 5853 5852 5852 5852 5852 5852 5852 5853 5854 5856 5857 5859 5861 5862 5863 5865 5866 5867 5868 5869 5870 5871 5872 5873 5873 5874
5870 5869 5868 5868 5866 5865 5864 5863 5861 5860 5858 5857 5856 5854 5853 5852 5851 5850 5849 5849 5848 5848 5848 5848 5849 5850 5851 5853 5855 5857 5859 5860 5862 5864 5865 5866 5867 5868 5870 5870 5871 5872 5873
5868 5868 5867 5866 5865 5863 5862 5861 5859 5858 5857 5855 5854 5852 5851 5850 5848 5847 5846 5845 5845 5844 5844 5844 5844 5845 5847 5849 5851 5853 5855 5857 5859 5861 5862 5864 5865 5866 5868 5869 5870 5871 5872
5867 5867 5865 5864 5863 5862 5861 5859 5858 5857 5855 5854 5852 5850 5849 5847 5846 5844 5843 5842 5841 5841 5840 5840 5840 5841 5842 5844 5846 5848 5851 5853 5855 5857 5859 5861 5863 5864 5866 5867 5868 5869 5871
5866 5865 5864 5863 5862 5861 5859 5858 5857 5855 5854 5852 5851 5849 5847 5845 5843 5842 5840 5839 5837 5837 5836 5836 5836 5837 5838 5839 5841 5844 5846 5849 5851 5854 5856 5858 5860 5862 5863 5865 5866 5868 5869
5865 5864 5863 5862 5861 5859 5858 5857 5855 5854 5852 5851 5849 5847 5845 5843 5841 5839 5837 5835 5834 5833 5832 5832 5832 5832 5833 5835 5837 5839 5842 5845 5847 5850 5853 5855 5857 5859 5861 5863 5864 5866 5868
5863 5863 5861 5860 5859 5858 5857 5856 5854 5853 5851 5849 5847 5845 5843 5840 5838 5836 5834 5832 5830 5829 5828 5827 5827 5827 5829 5830 5832 5834 5837 5840 5843 5846 5849 5852 5854 5856 5858 5861 5862 5864 5866
5862 5861 5860 5859 5858 5857 5856 5854 5853 5851 5849 5847 5845 5842 5840 5837 5835 5833 5830 5828 5827 5825 5824 5823 5822 5823 5824 5825 5827 5830 5833 5836 5839 5842 5845 5848 5851 5853 5856 5858 5861 5863 5865
5861 5860 5859 5858 5857 5856 5854 5853 5851 5849 5847 5845 5843 5840 5837 5835 5832 5830 5827 5825 5823 5821 5820 5819 5818 5818 5819 5820 5822 5825 5828 5831 5834 5838 5841 5845 5848 5850 5853 5856 5858 5861 5863
5859 5858 5858 5857 5856 5855 5853 5852 5850 5848 5845 5843 5840 5837 5834 5832 5829 5826 5824 5821 5819 5817 5815 5814 5813 5813 5814 5815 5817 5820 5823 5826 5830 5833 5837 5841 5844 5847 5850 5853 5856 5858 5861
5858 5857 5857 5856 5855 5853 5852 5850 5848 5846 5843 5841 5838 5835 5832 5829 5826 5823 5820 5818 5815 5813 5811 5810 5809 5809 5809 5810 5812 5815 5818 5821 5825 5829 5833 5837 5840 5844 5847 5850 5853 5856 5858
5856 5856 5855 5855 5853 5852 5851 5849 5846 5844 5841 5838 5835 5832 5829 5826 5823 5820 5817 5814 5811 5808 5806 5805 5804 5804 5804 5806 5807 5810 5813 5816 5820 5824 5828 5833 5837 5840 5844 5847 5850 5853 5856
5855 5855 5854 5853 5852 5850 5849 5847 5844 5842 5839 5836 5833 5830 5826 5823 5820 5816 5813 5810 5807 5804 5802 5800 5799 5799 5800 5801 5803 5805 5808 5812 5816 5820 5824 5828 5833 5837 5841 5844 5847 5850 5853
5854 5853 5853 5852 5850 5849 5847 5845 5842 5840 5837 5834 5830 5827 5824 5820 5817 5813 5810 5807 5803 5800 5798 5796 5795 5794 5795 5796 5798 5801 5804 5808 5811 5815 5820 5824 5829 5833 5837 5841 5844 5848 5851
5852 5851 5851 5850 5848 5847 5845 5843 5840 5838 5835 5831 5828 5825 5822 5818 5814 5810 5807 5803 5800 5797 5794 5792 5790 5790 5791 5792 5794 5797 5800 5803 5807 5811 5816 5821 5825 5830 5834 5838 5842 5845 5849
5850 5849 5849 5848 5846 5845 5843 5841 5838 5836 5833 5829 5826 5823 5819 5816 5812 5808 5804 5800 5797 5793 5791 5788 5787 5786 5787 5788 5790 5792 5795 5799 5803 5808 5812 5817 5822 5826 5830 5835 5839 5843 5846
5848 5847 5847 5846 5844 5843 5841 5839 5837 5834 5831 5828 5825 5821 5818 5814 5810 5806 5802 5798 5794 5790 5787 5785 5784 5783 5784 5785 5786 5789 5791 5795 5799 5804 5809 5814 5818 5823 5827 5832 5836 5840 5844
5846 5845 5845 5844 5843 5841 5840 5838 5835 5832 5829 5826 5823 5820 5816 5812 5808 5804 5800 5796 5792 5788 5785 5783 5781 5781 5781 5782 5784 5786 5789 5792 5796 5801 5805 5810 5815 5820 5824 5829 5833 5837 5841
5844 5844 5843 5842 5841 5840 5838 5837 5834 5831 5828 5825 5822 5818 5814 5810 5806 5802 5798 5794 5790 5787 5784 5781 5780 5779 5779 5780 5781 5783 5786 5791 5794 5798 5803 5808 5812 5817 5821 5826 5830 5834 5838
5842 5841 5841 5840 5839 5838 5837 5835 5833 5830 5827 5824 5821 5817 5813 5809 5805 5801 5797 5793 5789 5786 5783 5781 5779 5778 5778 5779 5780 5782 5785 5788 5791 5796 5800 5804 5809 5814 5818 5822 5827 5831 5835
5840 5840 5839 5838 5837 5836 5835 5833 5831 5829 5826 5823 5820 5816 5812 5808 5804 5800 5796 5792 5789 5786 5783 5781 5779 5778 5778 5778 5779 5781 5783 5786 5790 5794 5798 5802 5807 5811 5815 5819 5824 5828 5832
5839 5838 5837 5837 5836 5835 5833 5832 5830 5828 5825 5822 5819 5815 5811 5808 5804 5800 5796 5792 5789 5786 5783 5781 5779 5778 5778 5778 5779 5780 5782 5785 5788 5792 5796 5800 5804 5808 5812 5816 5821 5825 5829
5837 5836 5835 5835 5834 5833 5832 5830 5828 5826 5824 5821 5818 5815 5811 5807 5803 5800 5796 5792 5789 5786 5784 5782 5780 5779 5778 5778 5779 5780 5782 5784 5787 5790 5794 5798 5802 5806 5810 5813 5817 5821 5825